SVR1285 USSS-USPP

Flight info

Callsign SVR1285
Flight time N/A
Altitude 28000
Route LUNAG6K LUNAG T449 INPIL INPIL1E
Aircraft A320/M-SDE3FGHIRWY/LB1

Departure

Time N/A
Airport Koltsovo Airport (USSS)

Arrival

Time 2026-05-01 12:32
Airport Perm International Airport (USPP)
Time Latitude Longitude Altitude Speed Heading
2026-05-01 12:21 57.53460 56.28896 8333 ft 261 kts 296°
2026-05-01 12:21 57.54222 56.25840 8024 ft 259 kts 296°
2026-05-01 12:22 57.54966 56.22854 7725 ft 257 kts 296°
2026-05-01 12:22 57.55812 56.19929 7405 ft 254 kts 305°
2026-05-01 12:22 57.56863 56.17477 7122 ft 251 kts 315°
2026-05-01 12:22 57.57618 56.16057 6939 ft 249 kts 317°
2026-05-01 12:23 57.60682 56.10611 6199 ft 244 kts 318°
2026-05-01 12:23 57.61901 56.08435 5919 ft 242 kts 318°
2026-05-01 12:23 57.63104 56.06277 5639 ft 240 kts 318°
2026-05-01 12:24 57.64289 56.04145 5354 ft 236 kts 318°
2026-05-01 12:24 57.65455 56.02041 5067 ft 232 kts 318°
2026-05-01 12:24 57.66600 55.99973 4780 ft 228 kts 318°
2026-05-01 12:24 57.67717 55.97951 4507 ft 225 kts 318°
2026-05-01 12:25 57.68837 55.95923 4236 ft 221 kts 318°
2026-05-01 12:25 57.71001 55.92001 3711 ft 215 kts 318°
2026-05-01 12:25 57.72062 55.90073 3455 ft 212 kts 318°
2026-05-01 12:26 57.73105 55.88178 3197 ft 209 kts 318°
2026-05-01 12:26 57.75174 55.84413 2679 ft 205 kts 319°
2026-05-01 12:26 57.76183 55.82575 2436 ft 202 kts 319°
2026-05-01 12:27 57.77177 55.80780 2230 ft 197 kts 323°
2026-05-01 12:27 57.79574 55.79888 2193 ft 178 kts 20°
2026-05-01 12:28 57.81498 55.82811 2198 ft 180 kts 43°
2026-05-01 12:28 57.82346 55.84440 2192 ft 168 kts 43°
2026-05-01 12:28 57.83953 55.87558 2260 ft 159 kts 43°
2026-05-01 12:29 57.84685 55.88990 2030 ft 149 kts 41°
2026-05-01 12:29 57.85378 55.90339 1808 ft 138 kts 42°
2026-05-01 12:29 57.86602 55.92717 1469 ft 123 kts 43°
2026-05-01 12:30 57.87790 55.95007 1156 ft 123 kts 44°
2026-05-01 12:30 57.88381 55.96151 1011 ft 123 kts 45°
2026-05-01 12:30 57.88960 55.97329 834 ft 123 kts 43°
2026-05-01 12:31 57.89554 55.98461 667 ft 122 kts 43°
2026-05-01 12:31 57.90141 55.99605 500 ft 124 kts 43°
2026-05-01 12:31 57.90736 56.00751 391 ft 124 kts 44°
2026-05-01 12:31 57.91277 56.01774 397 ft 90 kts 47°
2026-05-01 12:32 57.91591 56.02381 400 ft 39 kts 47°
2026-05-01 12:32 57.91746 56.02359 399 ft 0 kts 316°
2026-05-01 12:34 57.91753 56.02348 399 ft 3 kts 316°
2026-05-01 12:34 57.91779 56.02295 398 ft 5 kts 298°
2026-05-01 12:34 57.91756 56.02207 397 ft 8 kts 227°
2026-05-01 12:35 57.91752 56.02197 397 ft 0 kts 227°
2026-05-01 12:35 57.91744 56.02182 397 ft 0 kts 227°